Year,Month,Day,Hour,Minute,Value (Times are PST for temperature in C)
2015,06,25,07,39,18.60
2015,06,25,07,40,18.60
2015,06,25,07,41,18.70
2015,06,25,07,42,18.70
2015,06,25,07,43,18.70
2015,06,25,07,44,18.70
2015,06,25,07,45,18.70
2015,06,25,07,46,18.70
2015,06,25,07,47,18.70
2015,06,25,07,48,18.80
2015,06,25,07,49,18.90
2015,06,25,07,50,18.90
2015,06,25,07,51,18.90
2015,06,25,07,52,18.90
2015,06,25,07,53,18.90
2015,06,25,07,54,18.90
2015,06,25,07,55,18.90
2015,06,25,07,56,19.00
2015,06,25,07,57,19.10
2015,06,25,07,58,19.10
2015,06,25,07,59,19.10
2015,06,25,08,00,19.20
2015,06,25,08,01,19.20
2015,06,25,08,02,19.30
2015,06,25,08,03,19.30
2015,06,25,08,04,19.30
2015,06,25,08,05,19.30
2015,06,25,08,06,19.30
2015,06,25,08,07,19.30
2015,06,25,08,08,19.30
2015,06,25,08,09,19.30
2015,06,25,08,10,19.20
2015,06,25,08,11,19.10
2015,06,25,08,12,19.10
2015,06,25,08,13,19.10
2015,06,25,08,14,19.10
2015,06,25,08,15,19.00
2015,06,25,08,16,18.90
2015,06,25,08,17,18.90
2015,06,25,08,18,18.90
2015,06,25,08,19,19.00
2015,06,25,08,20,19.10
2015,06,25,08,21,19.10
2015,06,25,08,22,19.10
2015,06,25,08,23,19.10
2015,06,25,08,24,19.10
2015,06,25,08,25,19.10
2015,06,25,08,26,19.10
2015,06,25,08,27,19.10
2015,06,25,08,28,19.10
2015,06,25,08,29,19.10
2015,06,25,08,30,19.10
2015,06,25,08,31,19.10
2015,06,25,08,32,19.10
2015,06,25,08,33,19.10
2015,06,25,08,34,19.10
2015,06,25,08,35,19.10
2015,06,25,08,36,19.10
2015,06,25,08,37,19.10
2015,06,25,08,38,19.10
2015,06,25,08,39,19.10
2015,06,25,08,40,19.10
2015,06,25,08,41,19.10
2015,06,25,08,42,19.10
2015,06,25,08,43,19.10
2015,06,25,08,44,19.10
2015,06,25,08,45,19.10
2015,06,25,08,46,19.10
2015,06,25,08,47,19.10
2015,06,25,08,48,19.10
2015,06,25,08,49,19.10
2015,06,25,08,50,19.10
2015,06,25,08,51,19.10
2015,06,25,08,52,19.10
2015,06,25,08,53,19.10
2015,06,25,08,54,19.00
2015,06,25,08,55,18.90
2015,06,25,08,56,18.90
2015,06,25,08,57,18.90
2015,06,25,08,58,18.90
2015,06,25,08,59,18.90
2015,06,25,09,00,18.90
2015,06,25,09,01,18.90
2015,06,25,09,02,18.90
2015,06,25,09,03,18.90
2015,06,25,09,04,18.90
2015,06,25,09,05,18.90
2015,06,25,09,06,18.90
2015,06,25,09,07,18.90
2015,06,25,09,08,18.90
2015,06,25,09,09,18.90
2015,06,25,09,10,19.00
2015,06,25,09,11,19.10
2015,06,25,09,12,19.10
2015,06,25,09,13,19.10
2015,06,25,09,14,19.10
2015,06,25,09,15,19.20
2015,06,25,09,16,19.30
2015,06,25,09,17,19.30
2015,06,25,09,18,19.40
2015,06,25,09,19,19.50
2015,06,25,09,20,19.60
2015,06,25,09,21,19.60
2015,06,25,09,22,19.60
2015,06,25,09,23,19.50
2015,06,25,09,24,19.50
2015,06,25,09,25,19.40
2015,06,25,09,26,19.40
2015,06,25,09,27,19.40
2015,06,25,09,28,19.40
2015,06,25,09,29,19.40
2015,06,25,09,30,19.40
2015,06,25,09,31,19.40
2015,06,25,09,32,19.40
2015,06,25,09,33,19.50
2015,06,25,09,34,19.50
2015,06,25,09,35,19.60
2015,06,25,09,36,19.60
2015,06,25,09,37,19.70
2015,06,25,09,38,19.70
2015,06,25,09,39,19.80
2015,06,25,09,40,19.90
2015,06,25,09,41,19.90
2015,06,25,09,42,20.10
2015,06,25,09,43,20.10
2015,06,25,09,44,20.10
2015,06,25,09,45,20.20
2015,06,25,09,46,20.20
2015,06,25,09,47,20.20
2015,06,25,09,48,20.20
2015,06,25,09,49,20.20
2015,06,25,09,50,20.20
2015,06,25,09,51,20.20
2015,06,25,09,52,20.20
2015,06,25,09,53,20.30
2015,06,25,09,54,20.40
2015,06,25,09,55,20.40
2015,06,25,09,56,20.40
2015,06,25,09,57,20.30
2015,06,25,09,58,20.30
2015,06,25,09,59,20.20
2015,06,25,10,00,20.20
2015,06,25,10,01,20.20
2015,06,25,10,02,20.20
2015,06,25,10,03,20.20
2015,06,25,10,04,20.20
2015,06,25,10,05,20.10
2015,06,25,10,06,20.10
2015,06,25,10,07,20.00
2015,06,25,10,08,19.90
2015,06,25,10,09,20.00
2015,06,25,10,10,20.10
2015,06,25,10,11,20.10
2015,06,25,10,12,20.10
2015,06,25,10,13,20.10
2015,06,25,10,14,20.10
2015,06,25,10,15,20.10
2015,06,25,10,16,20.10
2015,06,25,10,17,20.20
2015,06,25,10,18,20.20
2015,06,25,10,19,20.30
2015,06,25,10,20,20.40
2015,06,25,10,21,20.60
2015,06,25,10,22,20.70
2015,06,25,10,23,20.80
2015,06,25,10,24,21.00
2015,06,25,10,25,21.10
2015,06,25,10,26,21.20
2015,06,25,10,27,21.40
2015,06,25,10,28,21.60
2015,06,25,10,29,21.70
2015,06,25,10,30,21.80
2015,06,25,10,31,22.00
2015,06,25,10,32,22.10
2015,06,25,10,33,22.20
2015,06,25,10,34,22.20
2015,06,25,10,35,22.20
2015,06,25,10,36,22.30
2015,06,25,10,37,22.30
2015,06,25,10,38,22.30
2015,06,25,10,39,22.40
2015,06,25,10,40,22.40
2015,06,25,10,41,22.30
2015,06,25,10,42,22.30
2015,06,25,10,43,22.30
2015,06,25,10,44,22.30
2015,06,25,10,45,22.30
2015,06,25,10,46,22.20
2015,06,25,10,47,22.20
2015,06,25,10,48,22.20
2015,06,25,10,49,22.20
2015,06,25,10,50,22.10
2015,06,25,10,51,22.10
2015,06,25,10,52,22.00
2015,06,25,10,53,21.90
2015,06,25,10,54,21.90
2015,06,25,10,55,21.80
2015,06,25,10,56,21.70
2015,06,25,10,57,21.70
2015,06,25,10,58,21.70
2015,06,25,10,59,21.70
2015,06,25,11,00,21.70
2015,06,25,11,01,21.70
2015,06,25,11,02,21.60
2015,06,25,11,03,21.60
2015,06,25,11,04,21.60
2015,06,25,11,05,21.60
2015,06,25,11,06,21.60
2015,06,25,11,07,21.50
2015,06,25,11,08,21.40
2015,06,25,11,09,21.40
2015,06,25,11,10,21.40
2015,06,25,11,11,21.40
2015,06,25,11,12,21.30
2015,06,25,11,13,21.30
2015,06,25,11,14,21.40
2015,06,25,11,15,21.40
2015,06,25,11,16,21.50
2015,06,25,11,17,21.60
2015,06,25,11,18,21.70
2015,06,25,11,19,21.80
2015,06,25,11,20,21.80
2015,06,25,11,21,21.80
2015,06,25,11,22,21.80
2015,06,25,11,23,21.90
2015,06,25,11,24,21.90
2015,06,25,11,25,22.00
2015,06,25,11,26,22.00
2015,06,25,11,27,22.10
2015,06,25,11,28,22.10
2015,06,25,11,29,22.10
2015,06,25,11,30,22.10
2015,06,25,11,31,22.10
2015,06,25,11,32,22.10
2015,06,25,11,33,22.10
2015,06,25,11,34,22.20
2015,06,25,11,35,22.20
2015,06,25,11,36,22.30
2015,06,25,11,37,22.40
2015,06,25,11,38,22.50
2015,06,25,11,39,22.60
2015,06,25,11,40,22.70
2015,06,25,11,41,22.80
2015,06,25,11,42,22.90
2015,06,25,11,43,22.90
2015,06,25,11,44,22.90
2015,06,25,11,45,22.90
2015,06,25,11,46,22.90
2015,06,25,11,47,22.90
2015,06,25,11,48,23.00
2015,06,25,11,49,23.10
2015,06,25,11,50,23.00
2015,06,25,11,51,22.90
2015,06,25,11,52,22.80
2015,06,25,11,53,22.70
2015,06,25,11,54,22.70
2015,06,25,11,55,22.80
2015,06,25,11,56,22.80
2015,06,25,11,57,22.90
2015,06,25,11,58,22.90
2015,06,25,11,59,22.90
2015,06,25,12,00,23.00
2015,06,25,12,01,23.10
2015,06,25,12,02,23.20
2015,06,25,12,03,23.10
2015,06,25,12,04,23.10
2015,06,25,12,05,23.20
2015,06,25,12,06,23.30
2015,06,25,12,07,23.30
2015,06,25,12,08,23.30
2015,06,25,12,09,23.40
2015,06,25,12,10,23.50
2015,06,25,12,11,23.60
2015,06,25,12,12,23.60
2015,06,25,12,13,23.70
2015,06,25,12,14,23.70
2015,06,25,12,15,23.60
2015,06,25,12,16,23.50
2015,06,25,12,17,23.40
2015,06,25,12,18,23.30
2015,06,25,12,19,23.30
2015,06,25,12,20,23.30
2015,06,25,12,21,23.30
2015,06,25,12,22,23.20
2015,06,25,12,23,23.00
2015,06,25,12,24,22.90
2015,06,25,12,25,22.90
2015,06,25,12,26,22.90
2015,06,25,12,27,22.90
2015,06,25,12,28,22.90
2015,06,25,12,29,22.90
2015,06,25,12,30,22.90
2015,06,25,12,31,22.90
2015,06,25,12,32,22.80
2015,06,25,12,33,22.70
2015,06,25,12,34,22.60
2015,06,25,12,35,22.50
2015,06,25,12,36,22.30
2015,06,25,12,37,22.20
2015,06,25,12,38,22.00
2015,06,25,12,39,21.90
2015,06,25,12,40,21.80
2015,06,25,12,41,21.70
2015,06,25,12,42,21.60
2015,06,25,12,43,21.50
2015,06,25,12,44,21.50
2015,06,25,12,45,21.50
2015,06,25,12,46,21.40
2015,06,25,12,47,21.50
2015,06,25,12,48,21.60
2015,06,25,12,49,21.60
2015,06,25,12,50,21.70
2015,06,25,12,51,21.90
2015,06,25,12,52,22.00
2015,06,25,12,53,21.90
2015,06,25,12,54,21.80
2015,06,25,12,55,21.60
2015,06,25,12,56,21.60
2015,06,25,12,57,21.80
2015,06,25,12,58,21.90
2015,06,25,12,59,22.00
2015,06,25,13,00,22.10
2015,06,25,13,01,22.20
2015,06,25,13,02,22.30
2015,06,25,13,03,22.50
2015,06,25,13,04,22.50
2015,06,25,13,05,22.50
2015,06,25,13,06,22.30
2015,06,25,13,07,22.20
2015,06,25,13,08,22.20
2015,06,25,13,09,22.10
2015,06,25,13,10,22.10
2015,06,25,13,11,22.10
2015,06,25,13,12,22.00
2015,06,25,13,13,22.10
2015,06,25,13,14,22.20
2015,06,25,13,15,22.30
2015,06,25,13,16,22.30
2015,06,25,13,17,22.30
2015,06,25,13,18,22.30
2015,06,25,13,19,22.30
2015,06,25,13,20,22.40
2015,06,25,13,21,22.40
2015,06,25,13,22,22.40
2015,06,25,13,23,22.40
2015,06,25,13,24,22.50
2015,06,25,13,25,22.60
2015,06,25,13,26,22.70
2015,06,25,13,27,22.70
2015,06,25,13,28,22.70
2015,06,25,13,29,22.70
2015,06,25,13,30,22.60
2015,06,25,13,31,22.60
2015,06,25,13,32,22.60
2015,06,25,13,33,22.60
2015,06,25,13,34,22.60
2015,06,25,13,35,22.50
2015,06,25,13,36,22.60
2015,06,25,13,37,22.70
2015,06,25,13,38,22.70
2015,06,25,13,39,22.80
2015,06,25,13,40,22.80
2015,06,25,13,41,22.80
2015,06,25,13,42,22.70
2015,06,25,13,43,22.70
2015,06,25,13,44,22.80
2015,06,25,13,45,22.80
2015,06,25,13,46,22.90
2015,06,25,13,47,22.90
2015,06,25,13,48,22.80
2015,06,25,13,49,22.80
2015,06,25,13,50,22.80
2015,06,25,13,51,22.80
2015,06,25,13,52,22.90
2015,06,25,13,53,22.90
2015,06,25,13,54,22.90
2015,06,25,13,55,22.90
2015,06,25,13,56,22.90
2015,06,25,13,57,22.90
2015,06,25,13,58,22.90
2015,06,25,13,59,23.00
2015,06,25,14,00,23.10
2015,06,25,14,01,23.20
2015,06,25,14,02,23.30
2015,06,25,14,03,23.30
2015,06,25,14,04,23.30
2015,06,25,14,05,23.40
2015,06,25,14,06,23.30
2015,06,25,14,07,23.30
2015,06,25,14,08,23.30
2015,06,25,14,09,23.30
2015,06,25,14,10,23.20
2015,06,25,14,11,23.20
2015,06,25,14,12,23.30
2015,06,25,14,13,23.40
2015,06,25,14,14,23.50
2015,06,25,14,15,23.50
2015,06,25,14,16,23.40
2015,06,25,14,17,23.40
2015,06,25,14,18,23.50
2015,06,25,14,19,23.50
2015,06,25,14,20,23.40
2015,06,25,14,21,23.40
2015,06,25,14,22,23.30
2015,06,25,14,23,23.40
2015,06,25,14,24,23.50
2015,06,25,14,25,23.60
2015,06,25,14,26,23.50
2015,06,25,14,27,23.40
2015,06,25,14,28,23.30
2015,06,25,14,29,23.30
2015,06,25,14,30,23.30
2015,06,25,14,31,23.40
2015,06,25,14,32,23.50
2015,06,25,14,33,23.60
2015,06,25,14,34,23.60
2015,06,25,14,35,23.50
2015,06,25,14,36,23.40
2015,06,25,14,37,23.50
2015,06,25,14,38,23.50
2015,06,25,14,39,23.50
2015,06,25,14,40,23.60
2015,06,25,14,41,23.50
2015,06,25,14,42,23.40
2015,06,25,14,43,23.40
2015,06,25,14,44,23.40
2015,06,25,14,45,23.50
2015,06,25,14,46,23.60
2015,06,25,14,47,23.70
2015,06,25,14,48,23.70
2015,06,25,14,49,23.70
2015,06,25,14,50,23.70
2015,06,25,14,51,23.70
2015,06,25,14,52,23.70
2015,06,25,14,53,23.70
2015,06,25,14,54,23.70
2015,06,25,14,55,23.70
2015,06,25,14,56,23.70
2015,06,25,14,57,23.70
2015,06,25,14,58,23.70
2015,06,25,14,59,23.80
2015,06,25,15,00,23.80
2015,06,25,15,01,23.90
2015,06,25,15,02,24.00
2015,06,25,15,03,24.10
2015,06,25,15,04,24.10
2015,06,25,15,05,24.10
2015,06,25,15,06,24.10
2015,06,25,15,07,24.10
2015,06,25,15,08,24.20
2015,06,25,15,09,24.30
2015,06,25,15,10,24.40
2015,06,25,15,11,24.50
2015,06,25,15,12,24.60
2015,06,25,15,13,24.70
2015,06,25,15,14,24.70
2015,06,25,15,15,24.70
2015,06,25,15,16,24.70
2015,06,25,15,17,24.80
2015,06,25,15,18,24.80
2015,06,25,15,19,24.80
2015,06,25,15,20,24.80
2015,06,25,15,21,24.90
2015,06,25,15,22,24.90
2015,06,25,15,23,24.90
2015,06,25,15,24,24.80
2015,06,25,15,25,24.90
2015,06,25,15,26,24.90
2015,06,25,15,27,24.90
2015,06,25,15,28,24.80
2015,06,25,15,29,24.80
2015,06,25,15,30,24.70
2015,06,25,15,31,24.50
2015,06,25,15,32,24.40
2015,06,25,15,33,24.30
2015,06,25,15,34,24.20
2015,06,25,15,35,24.10
2015,06,25,15,36,24.10
2015,06,25,15,37,24.20
2015,06,25,15,38,24.20
2015,06,25,15,39,24.20
2015,06,25,15,40,24.20
2015,06,25,15,41,24.20
2015,06,25,15,42,24.20
2015,06,25,15,43,24.20
2015,06,25,15,44,24.20
2015,06,25,15,45,24.20
2015,06,25,15,46,24.20
2015,06,25,15,47,24.20
2015,06,25,15,48,24.20
2015,06,25,15,49,24.20
2015,06,25,15,50,24.20
2015,06,25,15,51,24.10
2015,06,25,15,52,24.10
2015,06,25,15,53,24.10
2015,06,25,15,54,24.00
2015,06,25,15,55,23.80
2015,06,25,15,56,23.80
2015,06,25,15,57,23.80
2015,06,25,15,58,23.80
2015,06,25,15,59,23.80
2015,06,25,16,00,23.90
2015,06,25,16,01,23.90
2015,06,25,16,02,24.00
2015,06,25,16,03,24.10
2015,06,25,16,04,24.10
2015,06,25,16,05,24.10
2015,06,25,16,06,24.10
2015,06,25,16,07,24.10
2015,06,25,16,08,24.10
2015,06,25,16,09,24.10
2015,06,25,16,10,24.10
2015,06,25,16,11,24.10
2015,06,25,16,12,24.10
2015,06,25,16,13,24.10
2015,06,25,16,14,24.00
2015,06,25,16,15,23.90
2015,06,25,16,16,23.90
2015,06,25,16,17,23.90
2015,06,25,16,18,23.90
2015,06,25,16,19,23.80
2015,06,25,16,20,23.70
2015,06,25,16,21,23.80
2015,06,25,16,22,23.80
2015,06,25,16,23,23.80
2015,06,25,16,24,23.90
2015,06,25,16,25,24.00
2015,06,25,16,26,24.10
2015,06,25,16,27,24.10
2015,06,25,16,28,24.20
2015,06,25,16,29,24.40
2015,06,25,16,30,24.40
2015,06,25,16,31,24.40
2015,06,25,16,32,24.40
2015,06,25,16,33,24.40
2015,06,25,16,34,24.30
2015,06,25,16,35,24.30
2015,06,25,16,36,24.40
2015,06,25,16,37,24.40
2015,06,25,16,38,24.40
2015,06,25,16,39,24.40
2015,06,25,16,40,24.30
2015,06,25,16,41,24.40
2015,06,25,16,42,24.30
2015,06,25,16,43,24.30
2015,06,25,16,44,24.30
2015,06,25,16,45,24.20
2015,06,25,16,46,24.20
2015,06,25,16,47,24.10
2015,06,25,16,48,24.20
2015,06,25,16,49,24.20
2015,06,25,16,50,24.20
2015,06,25,16,51,24.20
2015,06,25,16,52,24.20
2015,06,25,16,53,24.20
2015,06,25,16,54,24.30
2015,06,25,16,55,24.30
2015,06,25,16,56,24.30
2015,06,25,16,57,24.30
2015,06,25,16,58,24.30
2015,06,25,16,59,24.30
2015,06,25,17,00,24.30
2015,06,25,17,01,24.30
2015,06,25,17,02,24.30
2015,06,25,17,03,24.30
2015,06,25,17,04,24.20
2015,06,25,17,05,24.10
2015,06,25,17,06,24.10
2015,06,25,17,07,24.10
2015,06,25,17,08,24.10
2015,06,25,17,09,24.10
2015,06,25,17,10,24.10
2015,06,25,17,11,24.10
2015,06,25,17,12,23.90
2015,06,25,17,13,23.90
2015,06,25,17,14,23.90
2015,06,25,17,15,23.90
2015,06,25,17,16,24.00
2015,06,25,17,17,24.10
2015,06,25,17,18,24.10
2015,06,25,17,19,24.10
2015,06,25,17,20,24.10
2015,06,25,17,21,24.00
2015,06,25,17,22,24.00
2015,06,25,17,23,24.00
2015,06,25,17,24,23.90
2015,06,25,17,25,23.90
2015,06,25,17,26,23.80
2015,06,25,17,27,23.70
2015,06,25,17,28,23.70
2015,06,25,17,29,23.70
2015,06,25,17,30,23.60
2015,06,25,17,31,23.70
2015,06,25,17,32,23.60
2015,06,25,17,33,23.60
2015,06,25,17,34,23.60
2015,06,25,17,35,23.60
2015,06,25,17,36,23.60
2015,06,25,17,37,23.60
2015,06,25,17,38,23.40
2015,06,25,17,39,23.40
2015,06,25,17,40,23.20
2015,06,25,17,41,23.10
2015,06,25,17,42,23.10
2015,06,25,17,43,23.00
2015,06,25,17,44,22.90
2015,06,25,17,45,22.90
2015,06,25,17,46,22.90
2015,06,25,17,47,22.90
2015,06,25,17,48,22.90
2015,06,25,17,49,22.90
2015,06,25,17,50,22.90
2015,06,25,17,51,22.80
2015,06,25,17,52,22.80
2015,06,25,17,53,22.80
2015,06,25,17,54,22.80
2015,06,25,17,55,22.80
2015,06,25,17,56,22.70
2015,06,25,17,57,22.60
2015,06,25,17,58,22.60
2015,06,25,17,59,22.60
2015,06,25,18,00,22.60
2015,06,25,18,01,22.60
2015,06,25,18,02,22.60
2015,06,25,18,03,22.60
2015,06,25,18,04,22.70
2015,06,25,18,05,22.70
2015,06,25,18,06,22.80
2015,06,25,18,07,22.90
2015,06,25,18,08,22.90
2015,06,25,18,09,22.90
2015,06,25,18,10,23.00
2015,06,25,18,11,23.10
2015,06,25,18,12,23.20
2015,06,25,18,13,23.20
2015,06,25,18,14,23.20
2015,06,25,18,15,23.20
2015,06,25,18,16,23.30
2015,06,25,18,17,23.30
2015,06,25,18,18,23.30
2015,06,25,18,19,23.30
2015,06,25,18,20,23.40
2015,06,25,18,21,23.50
2015,06,25,18,22,23.50
2015,06,25,18,23,23.40
2015,06,25,18,24,23.40
2015,06,25,18,25,23.40
2015,06,25,18,26,23.50
2015,06,25,18,27,23.60
2015,06,25,18,28,23.60
2015,06,25,18,29,23.60
2015,06,25,18,30,23.50
2015,06,25,18,31,23.40
2015,06,25,18,32,23.40
2015,06,25,18,33,23.30
2015,06,25,18,34,23.30
2015,06,25,18,35,23.30
2015,06,25,18,36,23.30
2015,06,25,18,37,23.30
2015,06,25,18,38,23.20
2015,06,25,18,39,23.10
2015,06,25,18,40,23.10
2015,06,25,18,41,23.10
2015,06,25,18,42,23.10
2015,06,25,18,43,23.10
2015,06,25,18,44,23.20
2015,06,25,18,45,23.20
2015,06,25,18,46,23.30
2015,06,25,18,47,23.30
2015,06,25,18,48,23.30
2015,06,25,18,49,23.30
2015,06,25,18,50,23.30
2015,06,25,18,51,23.30
2015,06,25,18,52,23.30
2015,06,25,18,53,23.20
2015,06,25,18,54,23.20
2015,06,25,18,55,23.20
2015,06,25,18,56,23.20
2015,06,25,18,57,23.20
2015,06,25,18,58,23.20
2015,06,25,18,59,23.20
2015,06,25,19,00,23.30
2015,06,25,19,01,23.20
2015,06,25,19,02,23.20
2015,06,25,19,03,23.20
2015,06,25,19,04,23.20
2015,06,25,19,05,23.20
2015,06,25,19,06,23.30
2015,06,25,19,07,23.30
2015,06,25,19,08,23.30
2015,06,25,19,09,23.30
2015,06,25,19,10,23.30
2015,06,25,19,11,23.20
2015,06,25,19,12,23.20
2015,06,25,19,13,23.20
2015,06,25,19,14,23.20
2015,06,25,19,15,23.20
2015,06,25,19,16,23.30
2015,06,25,19,17,23.30
2015,06,25,19,18,23.30
2015,06,25,19,19,23.30
2015,06,25,19,20,23.30
2015,06,25,19,21,23.30
2015,06,25,19,22,23.30
2015,06,25,19,23,23.30
2015,06,25,19,24,23.30
2015,06,25,19,25,23.30
2015,06,25,19,26,23.30
2015,06,25,19,27,23.30
2015,06,25,19,28,23.20
2015,06,25,19,29,23.20
2015,06,25,19,30,23.20
2015,06,25,19,31,23.10
2015,06,25,19,32,23.10
2015,06,25,19,33,23.10
2015,06,25,19,34,23.10
2015,06,25,19,35,22.90
2015,06,25,19,36,22.90
2015,06,25,19,37,22.90
2015,06,25,19,38,22.90
2015,06,25,19,39,22.90
2015,06,25,19,40,22.90
2015,06,25,19,41,23.00
2015,06,25,19,42,23.10
2015,06,25,19,43,23.10
2015,06,25,19,44,23.10
2015,06,25,19,45,23.20
2015,06,25,19,46,23.20
2015,06,25,19,47,23.20
2015,06,25,19,48,23.30
2015,06,25,19,49,23.30
2015,06,25,19,50,23.30
2015,06,25,19,51,23.30
2015,06,25,19,52,23.30
2015,06,25,19,53,23.30
2015,06,25,19,54,23.30
2015,06,25,19,55,23.30
2015,06,25,19,56,23.30
2015,06,25,19,57,23.30
2015,06,25,19,58,23.30
2015,06,25,19,59,23.30
2015,06,25,20,00,23.30
2015,06,25,20,01,23.40
2015,06,25,20,02,23.40
2015,06,25,20,03,23.50
2015,06,25,20,04,23.60
2015,06,25,20,05,23.70
2015,06,25,20,06,23.70
2015,06,25,20,07,23.70
2015,06,25,20,08,23.70
2015,06,25,20,09,23.70
2015,06,25,20,10,23.70
2015,06,25,20,11,23.70
2015,06,25,20,12,23.80
2015,06,25,20,13,23.80
2015,06,25,20,14,23.80
2015,06,25,20,15,23.80
2015,06,25,20,16,23.80
2015,06,25,20,17,23.80
2015,06,25,20,18,23.70
2015,06,25,20,19,23.70
2015,06,25,20,20,23.70
2015,06,25,20,21,23.70
2015,06,25,20,22,23.70
2015,06,25,20,23,23.70
2015,06,25,20,24,23.70
2015,06,25,20,25,23.70
2015,06,25,20,26,23.60
2015,06,25,20,27,23.60
2015,06,25,20,28,23.60
2015,06,25,20,29,23.60
2015,06,25,20,30,23.60
2015,06,25,20,31,23.60
2015,06,25,20,32,23.50
2015,06,25,20,33,23.40
2015,06,25,20,34,23.40
2015,06,25,20,35,23.40
2015,06,25,20,36,23.40
2015,06,25,20,37,23.40
2015,06,25,20,38,23.40
2015,06,25,20,39,23.40
2015,06,25,20,40,23.40
2015,06,25,20,41,23.40
2015,06,25,20,42,23.40
2015,06,25,20,43,23.40
2015,06,25,20,44,23.30
2015,06,25,20,45,23.30
2015,06,25,20,46,23.30
2015,06,25,20,47,23.30
2015,06,25,20,48,23.30
2015,06,25,20,49,23.30
2015,06,25,20,50,23.20
2015,06,25,20,51,23.10
2015,06,25,20,52,23.10
2015,06,25,20,53,23.00
2015,06,25,20,54,22.90
2015,06,25,20,55,22.90
2015,06,25,20,56,22.90
2015,06,25,20,57,22.80
2015,06,25,20,58,22.80
2015,06,25,20,59,22.80
2015,06,25,21,00,22.80
2015,06,25,21,01,22.80
2015,06,25,21,02,22.80
2015,06,25,21,03,22.80
2015,06,25,21,04,22.80
2015,06,25,21,05,22.80
2015,06,25,21,06,22.80
2015,06,25,21,07,22.80
2015,06,25,21,08,22.80
